Theta_e
311 312 312 312 314 313 315 316 317 314 312 311 311 310 310 309 307 307 305 308 314 314 315 316 317 318 322 326 328 327 335 337 336 334 332 327 331 325 325 329 327 329 327 331 335
310 310 311 311 312 313 312 315 316 317 314 312 311 311 311 309 309 309 304 303 304 311 317 318 316 321 322 324 330 327 329 333 332 332 333 329 328 328 329 330 330 330 330 332 335
308 309 309 310 311 312 312 313 314 316 317 315 312 312 311 309 310 304 315 309 311 305 318 321 322 323 321 324 326 327 323 329 331 330 329 331 329 326 328 330 330 330 330 333 336
307 307 308 309 310 310 312 312 313 314 315 316 314 312 311 309 307 315 315 308 317 309 318 317 320 319 320 322 326 325 326 327 329 329 329 331 330 331 328 330 325 326 327 332 334
305 306 305 307 308 307 309 311 313 314 313 313 316 313 311 312 312 312 310 308 312 311 312 314 316 317 318 321 326 328 324 327 327 327 327 327 330 331 330 329 324 326 326 329 331
304 304 303 304 306 307 306 308 311 313 313 311 313 314 310 314 311 310 308 308 316 313 311 316 315 318 317 321 321 323 325 326 327 328 327 328 326 328 328 328 328 327 327 328 329
303 304 304 303 303 306 306 305 308 311 313 312 312 315 311 313 311 306 309 311 318 315 314 318 321 318 320 322 322 322 322 325 326 326 326 325 325 326 323 324 326 328 329 329 328
302 302 303 303 302 302 306 305 305 308 312 312 311 314 315 313 312 308 309 311 319 316 318 320 320 321 322 321 323 321 321 319 319 323 324 323 321 320 320 323 323 322 322 324 324
302 301 302 302 301 302 302 304 305 307 310 311 312 313 316 312 310 311 310 311 316 317 318 319 319 319 322 319 318 322 314 320 315 321 320 324 319 318 319 322 322 322 322 322 323
300 301 301 302 303 302 302 305 305 308 309 312 312 313 312 313 311 311 311 311 315 318 317 318 317 318 318 319 310 316 315 316 316 317 322 321 321 319 320 320 321 321 321 322 322
301 300 301 301 301 303 302 305 306 307 310 311 311 312 312 310 310 311 310 310 315 317 316 316 316 316 315 317 310 310 315 313 315 316 321 319 319 318 318 320 320 320 320 320 320
300 300 301 301 301 302 302 303 305 308 311 311 309 310 311 310 312 308 309 312 315 317 314 317 316 311 311 316 316 312 312 313 316 317 319 316 317 316 317 317 318 318 318 318 317
300 300 300 300 300 301 302 302 305 306 310 310 311 310 312 310 312 311 310 313 314 315 315 313 311 311 313 315 317 316 314 312 310 317 318 319 315 315 315 316 316 316 316 316 316
300 300 300 300 299 300 301 302 301 304 307 309 311 311 310 311 312 310 309 312 315 316 315 314 311 313 313 311 312 312 314 315 314 313 310 313 307 309 310 312 315 316 316 316 316
300 301 300 300 299 300 300 301 301 302 309 310 310 310 311 313 310 311 308 311 315 315 314 314 314 313 315 313 312 311 314 316 315 315 314 312 314 308 313 311 313 315 317 317 317
299 300 300 300 299 299 300 300 301 304 308 310 310 311 313 312 311 309 309 309 312 314 314 313 312 313 312 313 314 314 317 318 318 317 318 311 312 310 309 310 312 316 316 316 315
299 299 300 300 300 299 299 301 304 306 308 310 310 311 311 313 312 311 312 311 315 316 317 314 314 312 311 313 315 315 316 317 319 319 317 309 312 310 310 311 311 312 314 314 314
299 299 299 299 299 298 299 302 303 304 307 308 310 311 311 311 311 312 313 313 313 314 315 316 316 314 312 312 314 316 314 312 312 314 312 313 313 311 312 311 311 312 313 313 312
298 299 299 299 298 298 300 302 303 302 304 308 310 312 311 311 310 312 313 313 313 313 313 315 313 312 313 311 313 315 315 310 308 310 315 310 312 311 312 313 312 315 312 313 309
298 299 299 298 298 299 299 300 303 304 304 305 309 310 313 311 311 312 312 311 311 312 312 312 313 310 312 313 312 314 313 315 314 312 312 309 310 311 314 314 313 314 315 312 306
298 298 297 299 299 297 301 301 301 300 304 305 306 309 311 312 312 312 312 309 310 311 313 311 312 311 312 315 315 313 316 314 313 313 311 309 308 308 309 312 314 314 314 310 305
296 298 297 299 299 299 300 300 300 302 301 303 304 306 308 310 311 312 311 310 310 309 312 312 311 314 313 312 313 314 315 315 315 315 313 311 310 310 311 311 312 313 312 306 303
297 297 296 298 301 300 300 300 300 302 303 303 305 305 305 307 307 311 311 309 310 310 312 312 311 315 313 311 310 315 315 315 314 313 317 317 313 310 310 311 310 310 306 303 300
296 297 295 297 296 299 300 301 300 300 301 301 303 302 303 304 307 308 310 310 309 311 311 312 312 313 313 312 311 313 314 315 315 317 315 315 313 312 310 311 308 306 303 301 299
295 296 295 299 299 296 297 298 300 301 301 302 302 303 304 303 303 309 310 309 308 310 311 311 313 312 312 311 309 312 313 314 316 315 315 315 313 313 312 311 308 305 302 300 298
296 295 292 291 293 297 298 298 299 299 301 301 302 302 302 304 303 308 309 310 310 309 311 311 315 313 312 311 310 311 312 313 313 315 315 314 313 312 311 309 307 303 301 300 298
294 293 297 295 295 297 298 297 298 299 299 300 300 301 302 302 302 300 306 307 307 309 310 311 312 313 314 312 311 311 310 312 312 312 313 315 313 312 309 307 306 303 301 299 295
Wind_Speed
12 11 11 12 12 13 13 12 16 14 10 7 5 3 4 7 9 6 8 6 2 9 7 9 6 6 4 1 2 2 3 5 4 6 4 4 6 2 1 3 3 3 1 4 9
12 12 11 11 13 12 14 13 12 16 13 10 6 4 4 6 7 8 8 11 10 10 4 1 2 3 2 1 2 3 4 6 1 3 2 4 4 5 5 6 5 4 5 5 11
12 11 12 12 11 12 13 14 12 13 15 12 8 5 2 4 4 2 4 7 6 15 6 2 2 3 6 3 5 3 6 6 4 4 2 3 4 2 5 6 7 6 7 8 10
12 12 11 11 11 10 11 13 13 13 13 14 11 8 3 1 4 3 2 8 4 12 9 8 6 7 6 8 6 7 6 5 4 4 4 3 0 3 7 4 1 4 3 8 10
14 13 13 11 11 12 11 10 13 14 14 14 13 12 6 1 6 6 4 7 3 12 16 11 11 7 10 6 6 8 5 5 2 2 2 1 7 6 8 8 2 3 3 6 7
18 14 15 14 12 11 12 12 12 13 14 13 14 17 6 7 7 6 7 1 4 8 14 11 7 4 6 4 11 2 9 4 3 6 3 5 11 5 9 11 9 8 10 9 8
17 14 13 13 14 13 13 13 12 13 15 14 14 20 7 13 5 5 4 5 4 5 12 9 2 9 7 5 2 2 5 3 8 5 5 4 17 18 18 12 11 12 13 11 12
19 15 14 12 12 11 13 14 13 12 15 15 14 17 6 17 17 8 9 7 5 6 4 4 1 5 4 5 4 6 4 7 5 9 5 10 19 1 16 19 20 20 18 16 13
19 16 13 12 12 10 12 12 13 13 12 15 9 12 5 17 16 23 13 3 3 5 3 4 4 3 4 8 5 7 6 13 8 10 8 15 16 5 7 12 16 17 18 16 14
16 14 15 11 11 11 11 11 10 9 11 9 8 7 6 5 11 13 15 11 4 9 6 7 5 8 9 12 12 11 8 8 11 5 13 15 25 11 4 8 12 14 14 13 13
14 16 15 14 13 11 10 6 3 3 11 6 7 8 8 9 11 12 12 16 6 9 9 13 8 17 20 20 8 9 13 11 6 4 8 18 23 21 17 17 16 15 15 15 17
18 17 15 15 14 12 14 7 9 2 7 19 7 21 7 7 6 5 18 13 11 15 13 9 21 14 11 16 18 8 11 11 3 4 6 13 23 22 20 21 23 22 21 21 20
18 19 18 18 17 17 18 22 9 6 5 10 20 6 17 8 5 14 20 14 17 18 22 19 4 19 14 16 18 19 18 10 5 2 9 11 22 24 18 24 23 21 21 20 22
19 22 23 21 15 18 19 17 19 5 4 11 11 13 8 10 11 12 24 12 10 22 20 16 18 14 17 22 19 19 14 15 11 5 8 2 12 15 5 8 10 16 17 19 18
16 26 28 28 13 20 12 17 15 4 7 11 18 14 19 16 12 16 23 8 14 14 12 11 13 17 20 17 19 10 9 14 16 14 11 17 8 9 3 9 10 12 13 12 10
14 8 21 26 24 14 17 13 14 7 11 9 14 18 20 25 11 10 13 4 2 11 18 17 5 18 14 11 19 9 10 8 7 8 9 19 15 19 17 12 13 12 11 9 6
12 10 16 24 22 22 14 12 7 11 3 7 11 21 29 17 20 12 16 13 11 10 14 15 11 5 11 13 14 16 15 6 6 7 11 4 11 21 4 6 9 12 11 7 6
16 11 18 23 20 17 15 7 11 10 13 3 11 21 28 24 21 18 20 19 19 21 12 14 11 18 13 14 11 23 20 8 10 10 10 9 13 9 3 18 16 12 12 7 8
6 8 12 21 25 21 9 12 9 5 14 5 13 11 18 23 15 19 23 24 22 21 15 16 18 8 14 12 18 18 20 17 9 2 3 10 13 13 11 10 10 12 10 9 10
3 3 5 16 22 20 7 17 6 5 4 20 15 13 13 21 16 22 22 20 14 19 19 9 10 10 17 14 19 13 17 11 11 8 12 13 16 14 6 13 17 13 11 11 13
5 2 4 19 20 2 4 6 3 1 5 8 19 10 13 12 19 15 17 15 30 27 24 13 12 4 14 20 21 9 14 11 9 11 8 9 12 17 19 15 12 14 14 15 16
5 2 9 27 4 2 3 6 7 6 2 3 3 10 9 10 19 20 28 26 24 30 31 27 11 12 18 11 18 24 22 25 9 15 16 14 15 6 2 8 12 7 12 15 15
4 2 6 13 4 5 2 2 1 3 6 5 5 7 7 10 10 21 21 24 22 30 22 18 9 6 5 5 7 19 20 20 18 4 14 12 13 11 8 2 5 12 15 15 15
4 4 2 2 0 5 5 5 7 5 4 5 5 4 5 9 11 8 17 15 18 28 26 18 18 21 19 20 13 17 27 22 24 14 16 17 21 20 9 14 11 14 15 16 15
3 4 2 6 7 4 4 7 11 8 6 10 6 11 7 6 16 24 17 11 9 22 24 15 15 25 26 23 11 19 23 29 24 25 19 23 23 24 22 11 16 18 17 17 16
6 5 2 3 5 10 6 9 12 9 9 6 10 5 7 10 13 13 25 17 13 16 23 22 6 14 22 25 21 13 20 23 28 30 27 23 21 26 24 10 16 19 20 20 18
5 4 5 6 6 9 6 8 7 6 8 9 11 10 10 13 10 13 2 8 6 5 21 18 12 10 21 26 22 15 18 22 25 29 29 26 28 28 14 15 18 20 21 19 18
Wind_Direction
284 291 287 270 266 266 264 258 241 243 246 251 262 286 311 319 318 298 251 226 211 250 277 312 332 319 337 56 46 294 227 203 179 186 148 157 196 135 137 184 191 169 30 90 142
275 277 286 292 270 267 262 262 251 239 240 239 242 253 297 328 314 265 268 250 229 245 281 311 277 325 211 195 140 230 227 208 153 190 194 177 219 172 193 186 206 184 154 136 159
282 272 277 286 282 265 264 258 250 246 236 233 228 227 266 325 280 194 116 16 300 217 210 177 214 211 205 213 182 172 228 188 204 208 228 195 216 208 213 214 219 212 170 162 172
272 277 276 271 279 281 264 257 252 241 239 235 221 208 203 295 258 176 176 355 291 205 183 183 192 184 197 195 189 211 231 200 175 188 173 208 282 231 232 238 10 229 167 174 187
263 262 262 260 270 271 273 267 253 241 235 230 222 197 170 205 254 206 277 355 19 171 185 187 188 187 199 199 176 223 218 208 156 165 237 192 232 249 248 248 222 185 216 213 213
252 253 261 256 257 266 271 273 262 246 236 232 219 193 162 217 250 242 269 15 106 165 183 190 204 186 193 202 207 215 216 225 259 222 243 244 251 211 237 246 236 230 236 230 236
245 243 251 253 253 264 265 270 266 255 238 234 220 199 199 211 221 128 153 136 103 171 178 188 164 188 158 173 209 178 194 255 234 219 226 220 257 235 239 232 241 236 243 244 239
240 239 240 244 250 258 255 257 264 257 244 230 225 198 235 213 230 189 131 80 75 169 182 189 175 157 191 126 126 203 224 225 198 203 222 201 250 276 229 233 238 242 246 251 252
236 240 241 242 248 248 258 253 259 254 246 232 221 217 237 177 197 220 224 262 81 131 147 153 184 194 168 178 184 197 222 224 257 218 210 212 265 247 219 227 243 244 247 251 256
235 224 231 236 237 243 244 243 250 261 232 213 219 179 212 175 181 197 209 190 160 145 157 170 181 201 205 193 204 197 212 214 221 194 221 233 253 243 236 236 241 253 249 244 245
245 230 228 233 237 240 231 232 196 249 208 203 192 214 136 140 166 181 170 157 142 183 180 185 200 207 203 209 222 223 215 219 210 200 224 240 257 257 249 246 249 247 248 254 256
239 233 230 232 229 232 227 215 216 40 219 219 226 209 157 161 155 155 165 169 183 191 185 186 226 207 214 215 217 210 218 226 234 223 226 259 262 264 258 251 247 248 250 255 263
245 238 233 230 227 233 228 223 222 314 248 216 218 188 200 175 195 182 183 186 193 194 197 209 174 197 184 199 211 225 229 214 236 154 235 283 272 256 250 249 246 250 254 255 252
256 245 235 224 228 224 234 227 227 95 254 207 202 209 180 187 232 180 188 174 198 208 200 229 222 195 206 219 204 226 223 229 219 233 254 187 282 263 192 223 227 235 241 241 245
296 240 229 207 198 196 206 205 206 119 236 178 181 181 168 180 119 201 190 189 200 181 183 211 187 194 207 211 200 238 181 202 212 231 267 241 267 257 192 241 221 224 224 227 238
329 241 213 206 208 208 189 179 159 205 216 163 152 183 172 194 182 139 173 238 167 188 220 216 214 201 210 196 190 144 135 149 197 223 244 234 226 261 242 234 219 205 222 216 216
304 268 215 202 205 196 184 156 213 219 119 180 180 175 189 183 185 173 178 188 185 174 201 215 192 189 198 180 187 183 167 172 205 210 240 208 217 248 291 325 241 226 228 216 180
302 258 213 199 194 190 187 209 226 197 198 253 181 185 191 183 196 180 182 198 215 210 194 203 205 202 185 194 180 200 191 191 213 223 250 164 233 241 218 220 233 222 239 179 168
313 173 187 200 198 188 191 220 229 209 209 210 186 188 196 199 180 185 190 198 195 204 206 206 225 186 188 190 167 201 212 220 269 84 259 223 250 283 237 243 234 230 226 226 153
206 129 193 209 195 177 192 219 240 243 269 206 216 207 202 192 196 194 197 197 199 196 219 204 222 190 193 198 214 195 195 196 218 224 231 247 251 252 199 225 229 226 214 167 146
120 173 207 176 169 159 214 194 220 241 228 234 229 240 219 183 206 190 187 207 204 203 210 218 226 143 162 203 188 182 194 217 223 229 229 253 244 242 242 233 218 226 215 169 156
133 207 172 157 171 172 187 177 176 172 217 179 285 255 233 223 207 200 205 205 205 202 203 211 233 223 203 213 219 204 203 194 192 206 226 244 252 132 168 244 250 232 165 158 151
157 155 201 181 206 169 184 190 259 150 182 200 204 216 255 246 237 231 211 213 193 197 197 183 208 193 184 237 228 223 216 215 227 267 215 216 249 263 205 150 186 163 160 156 151
139 155 233 210 142 175 172 177 184 208 184 192 198 213 254 259 238 228 227 209 203 204 208 187 219 217 220 214 181 202 214 211 211 216 225 222 244 247 228 224 167 164 166 159 158
153 191 178 185 191 159 185 177 194 195 216 202 207 220 188 252 282 244 201 218 198 205 208 202 221 218 231 245 233 206 212 211 213 220 221 231 227 251 249 204 189 173 162 167 168
145 148 136 112 166 179 199 207 210 192 171 215 230 173 185 231 242 293 212 209 206 207 201 210 217 207 225 234 233 226 216 213 215 220 226 238 243 244 256 210 179 182 175 179 177
130 102 130 161 145 180 210 232 234 200 229 227 209 219 224 239 228 263 76 146 155 172 208 198 213 201 232 225 224 227 219 212 218 220 224 224 232 243 231 206 192 191 190 181 173